Weather History for KHOT - February, 2012

Change the Weather History Date:

Monday, February 13, 2012

  Actual Average Record
Temperature  
Mean Temperature 33 °F -  
Max Temperature 36 °F 54 °F 80 °F (1962)
Min Temperature 30 °F 33 °F 16 °F (1958)
Degree Days  
Heating Degree Days 32    
Moisture  
Dew Point 28 °F    
Average Humidity 84    
Maximum Humidity 100    
Minimum Humidity 40    
Precipitation  
Precipitation 0.24 in - - ()
Sea Level Pressure  
Sea Level Pressure 30.09 in    
Wind  
Wind Speed 5 mph (SE)    
Max Wind Speed 10 mph    
Max Gust Speed -    
Visibility 5 miles    
Events Rain , Snow    
Averages and records for this station are not official NWS values.
T = Trace of Precipitation, MM = Missing Value Source: NWS Daily Summary

Daily Weather History Graph

Daily Weather History Graph

Search for Another Location

Airport or City:

Trip Planner

Search our weather history database for the weather conditions in past years. The results will help you decide how hot, cold, wet, or windy it might be!

Date:

Astronomy

Feb. 13, 2012 Rise Set
Actual Time 7:00 AM CST 5:53 PM CST
Civil Twilight 6:34 AM CST 6:19 PM CST
Nautical Twilight 6:04 AM CST 6:48 PM CST
Astronomical Twilight 5:35 AM CST 7:18 PM CST
Moon No Moon Rise 10:19 AM CST (2/13)
Length of Visible Light 11h 44m
Length of Day
10h 53m
Waning Gibbous, 61% of the Moon is Illuminated
Feb 13
Waning Gibbous
Feb 14
Last Quarter
Feb 21
New
Feb 29
First Quarter
Mar 8
Full

Hourly Weather History & Observations

Time (CST) Temp. Windchill Dew Point Humidity Pressure Visibility Wind Dir Wind Speed Gust Speed Precip Events Conditions
12:53 AM 34.0 °F 28.8 °F 12.0 °F 40% 30.31 in 10.0 mi East 5.8 mph - N/A   Overcast
1:53 AM 34.0 °F 31.0 °F 12.9 °F 42% 30.29 in 10.0 mi East 3.5 mph - N/A   Overcast
2:53 AM 34.0 °F 29.8 °F 12.0 °F 40% 30.27 in 10.0 mi SE 4.6 mph - N/A   Overcast
3:53 AM 34.0 °F 31.0 °F 12.9 °F 42% 30.25 in 10.0 mi South 3.5 mph - N/A   Overcast
4:53 AM 34.0 °F 28.0 °F 14.0 °F 44% 30.24 in 10.0 mi Variable 6.9 mph - N/A   Overcast
5:53 AM 32.0 °F 27.5 °F 21.0 °F 64% 30.23 in 10.0 mi South 4.6 mph - 0.00 in   Overcast
6:38 AM 30.2 °F 25.4 °F 24.8 °F 80% 30.20 in 2.0 mi SE 4.6 mph - 0.00 in Snow Light Snow
6:53 AM 30.0 °F 25.2 °F 25.0 °F 82% 30.21 in 2.5 mi SE 4.6 mph - 0.00 in Snow Light Snow
7:00 AM 30.2 °F - 26.6 °F 86% 30.20 in 3.0 mi Calm Calm - 0.00 in Snow Light Snow
7:20 AM 30.2 °F 26.7 °F 26.6 °F 86% 30.20 in 5.0 mi SE 3.5 mph - 0.00 in Snow Light Snow
7:35 AM 30.2 °F 25.4 °F 26.6 °F 86% 30.20 in 2.0 mi SE 4.6 mph - 0.00 in Snow Light Snow
7:42 AM 30.2 °F 25.4 °F 26.6 °F 86% 30.19 in 3.0 mi SE 4.6 mph - 0.00 in Snow Light Snow
7:51 AM 30.2 °F 25.4 °F 26.6 °F 86% 30.20 in 5.0 mi SSE 4.6 mph - 0.00 in Snow Light Snow
7:53 AM 30.0 °F 26.5 °F 26.1 °F 85% 30.21 in 6.0 mi SE 3.5 mph - 0.00 in Snow Light Snow
8:00 AM 30.2 °F 25.4 °F 26.6 °F 86% 30.20 in 7.0 mi SE 4.6 mph - 0.00 in Snow Light Snow
8:17 AM 30.2 °F 23.4 °F 26.6 °F 86% 30.20 in 1.8 mi SE 6.9 mph - 0.00 in Snow Light Snow
8:30 AM 30.2 °F 24.3 °F 26.6 °F 86% 30.19 in 0.8 mi SE 5.8 mph - 0.01 in Snow Light Snow
8:41 AM 30.2 °F 25.4 °F 26.6 °F 86% 30.18 in 0.8 mi SE 4.6 mph - 0.02 in Snow Light Snow
8:53 AM 30.0 °F 23.2 °F 27.0 °F 88% 30.18 in 0.8 mi ESE 6.9 mph - 0.02 in Snow Light Snow
9:04 AM 30.2 °F 22.6 °F 26.6 °F 86% 30.16 in 1.5 mi ESE 8.1 mph - 0.01 in Snow Light Snow
9:07 AM 30.2 °F 22.6 °F 26.6 °F 86% 30.15 in 3.0 mi ESE 8.1 mph - 0.01 in Snow Light Snow
9:19 AM 30.2 °F 23.4 °F 28.4 °F 93% 30.14 in 7.0 mi ESE 6.9 mph - 0.01 in Rain Light Freezing Rain
9:53 AM 30.9 °F 24.3 °F 28.0 °F 89% 30.17 in 10.0 mi SSE 6.9 mph - 0.02 in Rain Light Freezing Rain
9:58 AM 30.2 °F 24.3 °F 28.4 °F 93% 30.16 in 10.0 mi Variable 5.8 mph - 0.00 in   Overcast
10:24 AM 32.0 °F 25.6 °F 28.4 °F 87% 30.14 in 10.0 mi SSE 6.9 mph - 0.00 in   Overcast
10:53 AM 32.0 °F 25.6 °F 28.0 °F 85% 30.13 in 10.0 mi SE 6.9 mph - 0.00 in   Overcast
11:53 AM 33.1 °F 24.9 °F 28.9 °F 85% 30.09 in 5.0 mi SE 10.4 mph - 0.01 in Rain Light Rain
12:34 PM 33.8 °F 28.6 °F 30.2 °F 87% 30.04 in 5.0 mi ESE 5.8 mph - 0.05 in Rain Rain
12:53 PM 33.1 °F 26.9 °F 30.0 °F 89% 30.05 in 8.0 mi SSE 6.9 mph - 0.07 in Rain Light Rain
1:53 PM 33.1 °F 26.9 °F 30.0 °F 89% 29.98 in 8.0 mi ESE 6.9 mph - 0.05 in Rain Light Rain
2:49 PM 33.8 °F 27.0 °F 30.2 °F 87% 29.94 in 5.0 mi ESE 8.1 mph - 0.01 in Rain Light Rain
2:53 PM 34.0 °F 28.8 °F 30.9 °F 89% 29.96 in 6.0 mi SE 5.8 mph - 0.01 in Rain Light Rain
3:18 PM 33.8 °F 28.6 °F 30.2 °F 87% 29.94 in 5.0 mi ESE 5.8 mph - 0.03 in Rain Rain
3:30 PM 33.8 °F - 32.0 °F 93% 29.95 in 10.0 mi Calm Calm - 0.03 in   Overcast
3:53 PM 34.0 °F - 32.0 °F 92% 29.95 in 8.0 mi Calm Calm - 0.03 in Rain Light Rain
4:53 PM 34.0 °F - 32.0 °F 92% 29.94 in 3.0 mi Calm Calm - 0.02 in Rain Light Rain
5:06 PM 33.8 °F 30.8 °F 32.0 °F 93% 29.93 in 2.5 mi ESE 3.5 mph - 0.01 in Rain Light Rain
5:53 PM 34.0 °F 29.8 °F 33.1 °F 96% 29.94 in 4.0 mi East 4.6 mph - 0.01 in Rain Light Rain
6:53 PM 35.1 °F 31.0 °F 33.1 °F 92% 29.94 in 7.0 mi East 4.6 mph - 0.00 in   Overcast
7:53 PM 35.1 °F 31.0 °F 34.0 °F 96% 29.93 in 2.5 mi ESE 4.6 mph - N/A   Overcast
8:32 PM 35.6 °F 32.8 °F 33.8 °F 93% 29.92 in 3.0 mi ENE 3.5 mph - N/A   Overcast
8:53 PM 35.1 °F - 34.0 °F 96% 29.92 in 2.5 mi Calm Calm - N/A   Overcast
9:53 PM 36.0 °F - 35.1 °F 97% 29.93 in 2.0 mi Calm Calm - N/A   Overcast
10:13 PM 35.6 °F - 35.6 °F 100% 29.93 in 1.5 mi Calm Calm - N/A   Overcast
10:53 PM 36.0 °F 33.3 °F 35.1 °F 97% 29.93 in 1.8 mi WNW 3.5 mph - N/A   Overcast
11:03 PM 35.6 °F 32.8 °F 35.6 °F 100% 29.93 in 2.5 mi WNW 3.5 mph - N/A   Overcast
11:13 PM 35.6 °F 32.8 °F 35.6 °F 100% 29.93 in 3.0 mi NW 3.5 mph - N/A   Overcast
11:53 PM 36.0 °F 32.1 °F 35.1 °F 97% 29.94 in 4.0 mi WNW 4.6 mph - N/A   Overcast